Location: Castiglione Fibocchi
(43.5333°N, 11.7667°E)
Time: 18:13:28
(UTC+00:00)

ADEOS Rocket - Pass Details

Date: 15 August 2020
Orbit: 858 x 1307 km, 98.7° (Epoch: 17 September)

Event Time Altitude Azimuth Distance (km) Brightness Sun altitude
Rises 03:30:09 0° 158° (SSE) 4,222 6.2 -8.7°
Reaches altitude 10° 03:32:48 10° 157° (SSE) 3,285 5.7 -8.3°
Maximum altitude 03:40:30 78° 73° (ENE) 1,338 3.9 -7.1°
Drops below altitude 10° 03:48:14 10° 349° (N) 3,294 6.0 -5.8°
Sets 03:50:53 0° 348° (NNW) 4,235 6.5 -5.4°
